Location: Harburg
(48.7667°N, 10.6667°E)
Time: 09:13:20
(UTC+00:00)

Cosmos 1634 Rocket - Pass Details

Date: 18 September 2020
Orbit: 961 x 991 km, 82.9° (Epoch: 27 October)

Event Time Altitude Azimuth Distance (km) Brightness Sun altitude
Exits shadow 19:34:23 37° 148° (SSE) 1,464 4.5 -21.5°
Maximum altitude 19:36:36 55° 92° (E) 1,151 4.0 -21.8°
Drops below altitude 10° 19:42:38 10° 17° (NNE) 2,716 6.5 -22.7°
Sets 19:45:11 0° 13° (NNE) 3,671 7.3 -23.0°
